Wind_Speed
26 26 27 27 27 27 27 28 29 28 28 28 28 29 29 30 30 31 33 34 34 34 33 32 31 30 30 30 31 31 32 32 31 31 32 31 30 30 32 33 34 34 35 36
26 26 27 27 26 26 26 27 27 28 28 28 29 30 30 30 30 30 32 33 33 33 32 31 30 29 29 30 30 31 31 31 31 31 32 31 30 31 31 32 32 33 34 34
26 26 26 25 25 25 25 25 27 28 28 29 29 30 30 30 30 31 31 32 31 31 30 30 29 29 29 29 30 30 30 30 29 29 30 30 31 31 31 31 32 32 33 33
27 26 26 24 24 25 25 26 27 28 28 28 29 29 30 30 31 31 31 31 30 30 30 29 29 29 29 29 29 29 28 28 27 28 29 29 30 30 30 30 31 31 32 33
27 27 26 24 24 25 25 25 27 28 28 28 29 30 30 31 31 32 31 31 29 29 28 28 29 29 29 29 28 28 27 27 27 27 28 28 29 29 29 29 30 30 31 32
27 27 27 25 25 26 27 26 26 28 28 29 29 30 29 30 30 30 30 29 28 27 27 27 27 27 27 27 27 27 26 26 26 25 25 26 27 27 28 29 29 29 30 30
27 27 27 26 26 27 27 27 27 28 28 28 29 29 29 29 28 29 28 28 27 26 25 25 25 25 25 26 25 25 25 25 25 25 25 26 26 27 27 27 28 28 29 29
26 27 26 26 27 27 28 28 28 29 29 29 29 28 28 28 27 27 26 26 25 24 24 24 23 23 24 24 24 24 24 24 24 25 26 26 26 27 27 27 27 28 28 28
26 26 26 27 27 28 28 28 29 29 29 29 29 28 28 28 27 27 26 25 24 23 22 22 21 22 22 22 22 22 22 23 24 25 25 25 25 26 27 27 27 28 27 27
26 26 26 27 28 29 29 29 29 29 29 29 29 29 28 27 27 27 26 25 24 23 21 21 21 21 21 21 21 20 21 21 23 24 23 23 23 24 24 25 25 26 25 25
26 26 26 26 27 28 28 28 28 28 29 29 28 27 26 25 25 24 24 23 22 21 21 20 20 20 20 20 19 19 20 21 21 22 22 21 21 21 22 23 23 23 24 24
25 25 25 25 26 27 27 28 28 28 28 27 26 25 24 24 24 23 22 21 20 20 20 20 20 19 19 19 19 19 19 20 20 20 20 20 20 20 21 21 21 21 21 21
25 25 26 26 26 26 27 27 26 26 25 25 25 24 24 24 23 22 21 20 19 18 19 19 18 19 18 18 18 18 18 19 19 19 19 19 19 19 19 19 19 18 18 18
25 25 25 25 25 25 24 24 24 24 24 24 24 24 24 23 22 21 20 19 18 18 18 18 18 18 18 18 18 18 17 17 17 17 18 18 17 17 17 17 16 16 16 16
23 24 24 24 23 23 23 23 23 23 23 23 23 23 23 22 21 20 19 18 18 18 18 17 17 17 17 17 17 17 16 16 16 16 16 16 16 16 16 16 15 15 15 15
23 23 23 23 22 22 22 22 22 22 22 22 22 22 22 21 20 19 18 18 17 17 17 17 17 17 16 16 17 16 16 16 16 16 15 14 14 14 15 15 15 15 14 15
22 22 22 22 21 21 21 21 21 22 22 22 22 21 21 20 19 18 17 17 16 16 16 16 16 15 16 16 15 15 15 15 15 14 14 13 13 13 14 14 15 15 14 14
20 21 21 21 21 21 21 21 21 21 21 21 21 20 19 18 17 17 16 16 15 15 16 16 15 15 15 15 15 15 14 15 14 14 14 14 14 13 13 14 14 14 14 14
20 21 21 21 21 20 20 20 20 20 20 20 19 19 18 17 16 16 15 15 14 14 14 14 14 14 13 14 14 14 14 15 14 14 14 14 14 14 14 14 13 13 13 13
20 20 20 20 20 19 19 19 19 20 20 20 19 18 18 17 15 14 14 14 14 14 13 13 13 13 13 13 14 14 14 14 14 14 14 14 14 14 14 13 13 13 12 12
20 20 19 19 19 19 19 19 19 19 19 18 17 17 16 15 14 14 14 14 14 13 13 12 13 13 13 13 14 14 14 14 14 14 14 14 14 14 13 13 12 12 12 11
19 19 18 18 18 18 18 18 18 18 17 16 15 15 14 14 14 14 14 14 13 13 13 13 13 13 13 14 14 14 14 14 14 14 13 13 12 12 12 11 11 11 11 11
18 18 17 18 17 17 17 17 17 16 16 15 14 14 14 14 14 14 14 14 13 13 13 13 13 13 14 14 14 14 14 14 14 14 13 12 12 11 11 11 10 10 10 10
17 17 18 18 17 16 16 16 16 16 16 15 14 13 13 13 14 13 13 13 13 13 13 13 14 14 14 14 14 14 14 14 14 14 13 12 12 12 11 11 11 10 10 10
17 17 17 17 16 15 15 15 15 15 15 14 13 13 13 13 13 13 13 13 13 13 13 13 14 14 13 14 14 14 14 14 13 13 13 12 12 12 12 11 11 11 11 11
17 17 17 16 15 15 15 14 14 14 14 13 13 13 13 13 13 13 13 12 12 13 13 13 13 13 14 14 14 14 14 13 13 12 12 12 12 12 12 12 12 12 12 11
17 17 16 15 15 14 14 13 13 13 12 12 12 13 13 13 13 13 13 12 12 12 12 12 13 13 13 13 13 13 13 13 12 11 11 11 11 11 11 11 11 11 11 11
Wind_Direction
288 290 291 291 290 290 289 290 291 293 294 295 295 295 294 292 291 290 289 289 287 286 286 284 282 280 280 279 278 275 273 270 267 265 265 265 265 264 264 262 260 259 260 261
289 291 291 289 290 290 290 291 291 292 294 294 295 294 294 293 293 293 292 290 287 287 285 283 282 281 281 281 279 276 274 271 268 267 266 265 265 265 266 264 261 261 262 262
291 292 292 291 291 290 291 292 292 294 295 295 294 295 295 295 294 295 294 292 289 287 285 283 282 281 281 281 280 278 274 271 268 267 267 265 265 265 265 264 262 262 262 263
292 292 292 295 291 291 292 293 294 295 296 297 297 296 297 297 296 296 296 295 292 288 285 283 283 282 282 281 280 278 274 270 268 268 269 266 265 264 265 264 263 263 263 263
292 291 293 294 294 295 295 296 296 296 297 299 297 296 296 297 297 297 297 297 293 290 288 285 284 283 282 281 279 276 272 269 269 270 270 268 266 265 265 264 264 265 264 264
292 291 292 295 295 296 296 297 298 298 299 299 298 297 297 297 297 297 297 297 295 292 290 287 286 285 283 281 278 275 271 269 271 270 270 268 267 266 266 264 265 266 265 265
291 291 293 295 296 297 297 299 300 300 301 301 301 300 300 300 298 298 297 297 295 292 291 290 290 289 286 282 279 277 273 271 270 271 271 270 268 266 267 266 265 266 265 266
290 292 295 294 296 298 299 299 300 301 302 302 302 302 300 299 298 299 299 298 296 292 291 291 292 292 289 285 282 278 274 273 272 272 272 272 269 267 267 268 268 267 266 266
290 291 293 294 296 297 298 299 300 301 301 302 303 302 299 298 298 298 298 297 294 291 291 292 294 294 293 290 286 281 278 275 274 275 274 272 271 270 268 268 268 267 267 267
289 289 290 293 295 297 297 299 301 302 302 302 303 301 300 299 299 299 299 297 292 289 289 292 294 295 295 294 290 284 281 279 277 277 277 274 272 271 269 267 267 267 268 268
290 290 291 294 296 296 297 298 299 301 303 304 304 303 301 300 301 300 300 297 293 290 290 291 292 293 294 293 291 287 284 282 280 278 276 275 274 274 272 269 267 268 269 270
292 292 295 297 298 297 298 298 298 299 301 303 303 304 303 302 302 301 299 297 293 292 293 292 293 292 292 293 292 289 287 284 281 279 277 276 277 277 275 273 270 271 272 272
292 293 295 297 298 299 299 299 299 299 300 302 303 304 303 303 303 300 299 296 294 294 294 295 294 292 292 294 295 293 291 288 284 282 280 278 277 275 274 273 272 273 272 271
293 295 295 297 298 299 299 300 300 299 301 303 303 303 304 304 304 302 299 296 293 293 295 297 297 295 292 292 296 296 293 291 289 286 284 281 277 274 273 272 272 273 272 271
293 296 297 298 299 300 301 302 303 303 304 304 304 304 304 303 302 303 300 297 296 296 296 298 297 295 294 293 296 296 293 293 293 292 287 282 278 275 273 270 270 272 272 272
294 296 297 298 299 300 302 303 304 304 304 304 304 304 303 302 301 301 301 300 298 299 299 299 298 295 292 293 297 297 293 294 295 293 290 285 279 276 274 271 270 271 272 272
295 296 296 297 298 300 302 302 303 304 304 304 304 303 302 301 300 299 299 300 299 299 301 300 298 293 290 291 295 298 296 294 293 291 288 284 280 278 277 274 271 270 271 272
295 297 298 298 298 300 301 302 303 304 304 304 304 303 302 300 299 299 300 300 300 301 303 303 300 296 292 293 294 296 296 296 293 290 286 284 280 279 279 278 275 270 271 272
295 297 299 299 299 300 302 303 304 305 305 305 305 304 301 299 298 298 299 301 302 305 305 303 301 301 298 296 295 295 294 295 293 290 287 284 280 279 279 278 273 269 270 272
295 297 298 300 300 300 301 302 304 305 306 306 305 304 302 299 298 298 298 299 301 304 304 304 304 302 300 298 296 296 295 294 292 290 286 282 280 280 279 275 271 269 269 270
294 296 298 299 300 301 301 303 305 307 308 307 306 304 303 300 298 297 298 299 300 301 300 303 304 303 300 299 298 298 297 296 294 291 286 282 279 278 276 273 271 269 268 267
294 296 299 301 301 302 302 304 307 309 310 309 308 306 305 303 300 298 298 299 298 298 300 303 305 304 303 302 300 299 298 298 295 291 286 281 278 276 273 271 270 267 265 263
294 295 297 299 301 302 303 306 308 309 310 310 309 306 304 303 301 299 299 301 299 297 301 305 305 304 303 304 304 301 299 297 295 290 284 280 276 273 270 268 266 265 264 263
294 295 296 298 299 301 304 307 308 308 308 307 307 305 304 305 304 303 302 302 302 301 301 303 304 305 304 303 305 305 302 299 294 288 283 277 273 270 268 267 266 264 263 262
295 296 296 297 297 299 303 306 308 309 308 306 305 304 304 305 305 305 304 303 303 304 305 307 308 307 306 304 305 304 303 301 296 289 282 277 272 268 264 263 264 264 263 263
294 295 295 294 295 298 301 304 307 309 309 307 305 303 304 306 305 304 305 304 303 303 305 306 307 308 308 307 306 305 303 302 300 292 284 276 271 267 263 262 262 261 261 261
294 293 292 291 293 296 299 302 305 308 310 310 306 303 304 305 305 305 304 304 305 304 305 306 307 308 309 309 308 306 304 303 300 292 284 278 271 266 263 261 261 259 260 260
Height
5608 5606 5604 5603 5601 5599 5596 5594 5592 5591 5588 5587 5583 5580 5578 5575 5572 5570 5568 5565 5563 5561 5559 5557 5555 5553 5552 5551 5550 5549 5549 5548 5549 5550 5551 5551 5552 5553 5554 5555 5557 5558 5560 5562
5602 5600 5597 5596 5594 5592 5590 5588 5585 5583 5582 5580 5576 5573 5570 5568 5565 5562 5559 5557 5554 5552 5550 5548 5547 5545 5544 5543 5542 5541 5540 5540 5540 5541 5541 5542 5543 5544 5545 5546 5547 5549 5550 5552
5595 5592 5590 5590 5589 5586 5584 5582 5579 5576 5575 5572 5569 5566 5563 5560 5557 5554 5551 5548 5546 5543 5541 5540 5538 5537 5536 5534 5533 5532 5531 5531 5531 5532 5533 5534 5535 5536 5537 5537 5538 5540 5541 5543
5587 5586 5584 5586 5582 5579 5577 5575 5572 5570 5567 5564 5561 5558 5556 5552 5549 5546 5543 5540 5538 5535 5533 5532 5530 5529 5527 5526 5525 5524 5523 5523 5523 5524 5525 5525 5526 5527 5528 5528 5530 5531 5532 5533
5580 5578 5577 5578 5575 5572 5570 5569 5566 5563 5560 5557 5554 5551 5549 5545 5541 5538 5535 5532 5530 5527 5525 5523 5522 5520 5519 5518 5516 5516 5516 5516 5516 5516 5516 5517 5518 5518 5519 5520 5521 5522 5523 5524
5574 5571 5570 5572 5569 5565 5564 5562 5559 5556 5553 5550 5546 5544 5542 5538 5534 5531 5527 5524 5522 5519 5517 5515 5514 5512 5510 5509 5509 5508 5508 5509 5508 5509 5509 5509 5509 5510 5510 5511 5512 5513 5514 5515
5567 5564 5564 5564 5561 5559 5558 5556 5552 5548 5545 5542 5539 5536 5534 5530 5527 5523 5520 5517 5514 5512 5510 5508 5506 5504 5503 5502 5502 5501 5501 5501 5501 5501 5502 5502 5502 5502 5503 5503 5504 5505 5506 5506
5561 5559 5560 5557 5554 5552 5550 5547 5544 5541 5538 5535 5532 5529 5525 5522 5519 5516 5513 5510 5507 5505 5504 5502 5500 5498 5497 5495 5495 5494 5494 5494 5494 5494 5494 5494 5494 5495 5495 5495 5496 5497 5497 5498
5556 5556 5552 5549 5547 5545 5542 5540 5537 5534 5531 5528 5525 5522 5518 5515 5512 5509 5506 5504 5501 5499 5498 5496 5494 5492 5491 5489 5488 5487 5487 5487 5487 5487 5486 5486 5487 5487 5487 5487 5488 5489 5489 5489
5548 5547 5545 5542 5540 5537 5535 5532 5530 5527 5524 5521 5518 5515 5512 5508 5505 5502 5500 5497 5495 5493 5492 5490 5488 5486 5485 5483 5482 5481 5481 5481 5480 5480 5479 5479 5479 5479 5479 5480 5480 5480 5481 5481
5541 5540 5538 5536 5533 5530 5528 5525 5522 5520 5517 5514 5511 5508 5505 5502 5499 5496 5493 5491 5488 5487 5486 5484 5482 5481 5479 5478 5476 5475 5475 5474 5474 5473 5473 5472 5472 5472 5472 5472 5472 5473 5473 5473
5535 5533 5531 5529 5526 5523 5521 5518 5516 5513 5510 5507 5504 5501 5498 5495 5492 5490 5487 5485 5483 5481 5480 5478 5477 5475 5474 5472 5471 5470 5469 5468 5467 5467 5466 5466 5466 5465 5465 5465 5465 5465 5465 5466
5528 5526 5524 5522 5519 5517 5514 5511 5509 5506 5504 5501 5498 5495 5492 5489 5486 5484 5481 5479 5478 5476 5475 5473 5472 5470 5469 5467 5466 5465 5464 5463 5462 5461 5461 5460 5459 5459 5459 5459 5459 5459 5459 5459
5522 5520 5518 5516 5513 5511 5508 5505 5503 5500 5497 5495 5492 5489 5487 5484 5481 5479 5477 5475 5473 5471 5470 5468 5467 5465 5464 5463 5461 5460 5458 5457 5457 5456 5455 5454 5454 5453 5454 5454 5454 5454 5454 5454
5516 5514 5512 5510 5507 5505 5502 5499 5497 5494 5492 5489 5486 5484 5481 5479 5476 5474 5472 5470 5468 5466 5465 5463 5462 5460 5459 5458 5456 5455 5454 5453 5452 5451 5450 5449 5449 5449 5449 5449 5449 5449 5449 5449
5510 5508 5506 5504 5502 5499 5497 5494 5492 5489 5487 5484 5481 5479 5476 5474 5471 5469 5467 5465 5463 5462 5460 5459 5457 5455 5454 5453 5452 5450 5449 5448 5447 5446 5446 5445 5445 5444 5444 5444 5444 5444 5444 5444
5505 5503 5501 5499 5497 5494 5492 5490 5487 5484 5482 5479 5476 5474 5471 5469 5466 5464 5462 5461 5459 5457 5456 5454 5452 5451 5450 5449 5447 5446 5445 5444 5443 5442 5442 5441 5441 5440 5440 5440 5440 5440 5440 5440
5499 5498 5496 5494 5492 5489 5487 5484 5482 5479 5476 5474 5471 5468 5466 5464 5462 5460 5458 5456 5455 5453 5452 5450 5448 5447 5445 5444 5443 5442 5441 5440 5439 5438 5438 5437 5437 5436 5436 5436 5436 5436 5436 5436
5494 5492 5490 5488 5486 5484 5482 5479 5477 5474 5471 5469 5466 5464 5461 5459 5457 5455 5454 5452 5451 5449 5448 5446 5444 5443 5442 5440 5439 5438 5437 5436 5435 5434 5434 5433 5433 5432 5432 5432 5432 5432 5432 5432
5489 5487 5485 5483 5481 5479 5477 5475 5472 5470 5467 5464 5462 5459 5457 5455 5453 5451 5450 5448 5447 5445 5444 5442 5441 5440 5438 5437 5436 5435 5433 5432 5431 5430 5429 5429 5429 5428 5428 5428 5428 5428 5428 5428
5483 5481 5479 5478 5476 5474 5472 5470 5467 5465 5462 5459 5457 5455 5453 5451 5449 5448 5446 5445 5443 5442 5440 5439 5438 5436 5435 5434 5432 5431 5430 5428 5427 5426 5425 5425 5425 5424 5424 5424 5424 5424 5425 5425
5478 5476 5474 5473 5471 5469 5467 5465 5463 5460 5458 5455 5453 5451 5449 5448 5446 5444 5443 5441 5440 5438 5437 5435 5434 5433 5431 5430 5429 5427 5426 5425 5423 5422 5421 5421 5421 5421 5421 5421 5421 5421 5421 5422
5473 5471 5470 5468 5467 5465 5463 5461 5458 5456 5454 5452 5450 5448 5446 5444 5442 5441 5439 5438 5436 5435 5433 5432 5431 5429 5428 5427 5425 5424 5422 5421 5420 5418 5418 5417 5417 5417 5417 5417 5417 5418 5418 5418
5468 5467 5465 5464 5462 5460 5458 5456 5454 5452 5450 5448 5446 5444 5442 5441 5439 5437 5436 5434 5433 5431 5430 5429 5427 5426 5424 5423 5422 5420 5418 5417 5415 5414 5414 5413 5413 5413 5414 5414 5414 5415 5415 5415
5464 5462 5461 5459 5458 5456 5454 5452 5450 5448 5446 5444 5443 5441 5439 5438 5436 5434 5433 5431 5430 5428 5427 5425 5424 5422 5421 5419 5418 5416 5414 5413 5411 5410 5410 5409 5409 5410 5410 5410 5411 5411 5412 5412
5459 5458 5456 5455 5453 5452 5450 5448 5447 5445 5443 5441 5439 5438 5436 5434 5433 5431 5429 5428 5426 5425 5424 5422 5421 5419 5418 5416 5414 5412 5411 5409 5407 5406 5405 5405 5405 5406 5406 5407 5407 5408 5408 5408
5454 5453 5452 5450 5449 5448 5446 5445 5443 5441 5440 5438 5436 5434 5433 5431 5429 5428 5426 5425 5423 5422 5420 5419 5417 5416 5414 5412 5411 5409 5407 5405 5404 5403 5402 5402 5402 5402 5402 5403 5403 5404 5404 5405